Simultaneous Nadir Overpasses (SNOs) Predictions

Prediction of SNOs between FY3D and AQUA Satellite Orbit:

Table of predicted SNOs for the next 14.0 days since TLE Epoch: 12/21/2024
Index Date (FY3D) Time (FY3D) Lat,Lon (FY3D) SZA (FY3D ) Date (AQUA) Time (AQUA) Lat,Lon (AQUA) SZA (AQUA ) Distance(km) Time Diff (sec)
1 12/21/2024 20:40:43 -79.70, 32.31 76.49 12/21/2024 20:41:54 -79.70, 32.42 76.51 2.10 71
2 12/21/2024 21:31:20 79.43,-157.87 103.13 12/21/2024 21:31:07 79.44,-157.99 103.15 2.80 13
3 12/24/2024 07:53:07 -79.57,-134.48 76.70 12/24/2024 07:53:18 -79.57,-134.36 76.71 2.49 11
4 12/24/2024 08:43:43 79.26, 35.53 102.88 12/24/2024 08:42:30 79.27, 35.43 102.90 2.16 73
5 12/26/2024 18:14:52 79.60,-110.14 103.28 12/26/2024 18:15:26 79.60,-110.08 103.27 1.24 34
6 12/26/2024 19:05:29 -79.38, 59.17 77.04 12/26/2024 19:04:39 -79.38, 59.21 77.03 0.77 50
7 12/29/2024 04:36:36 -79.65, -86.00 76.76 12/29/2024 04:37:32 -79.65, -85.91 76.79 2.05 56
8 12/29/2024 05:27:13 79.39, 83.74 102.86 12/29/2024 05:26:45 79.39, 83.63 102.88 2.29 28
9 12/31/2024 15:00:38 80.67,-110.83 109.03 12/31/2024 15:01:50 81.47,-111.91 109.50 91.46 72
10 12/31/2024 15:48:59 -79.51, 107.30 77.13 12/31/2024 15:48:51 -79.50, 107.41 77.15 2.56 8
11 01/03/2025 02:10:44 79.56, 131.41 102.75 01/03/2025 02:10:55 79.56, 131.54 102.73 2.80 11



Historial Predications of SNOs between FY3D and AQUA
